Temp
70 69 69 69 69 68 67 66 65 64 65 65 65 65 65 65 66 67 67 66 66 65 64 63 63 63 62 59 58 58 56 55 56 56 55 55 55 54 56 58 58 57 57
65 67 68 68 68 67 67 67 67 65 65 67 65 66 66 66 67 66 66 66 65 64 64 63 62 62 61 60 59 59 57 57 56 56 57 52 53 54 54 56 56 54 58
65 65 67 67 68 67 67 67 68 67 67 67 64 63 60 63 63 64 65 65 65 65 65 63 62 60 62 61 59 59 58 57 54 52 56 52 52 51 54 52 54 53 55
68 68 68 67 66 67 68 69 68 67 67 65 66 64 65 64 67 65 66 65 65 65 64 63 61 60 60 59 58 59 58 58 55 52 52 52 53 51 48 52 52 54 52
67 67 68 70 69 68 67 68 67 67 66 65 66 65 66 67 67 65 63 63 64 64 63 62 60 59 60 58 56 55 56 57 56 55 51 51 51 51 51 50 48 52 53
68 70 70 70 68 66 65 66 66 66 66 65 65 64 65 61 64 63 62 63 63 62 62 61 58 57 57 56 54 54 54 54 53 54 52 52 52 50 50 50 49 49 50
67 67 66 66 67 64 63 64 65 66 66 65 64 64 63 64 64 63 63 62 61 61 60 59 56 55 56 55 54 53 52 52 51 50 50 51 51 52 52 51 51 49 51
69 69 68 67 66 65 63 64 65 66 65 65 65 65 64 66 67 65 65 64 64 63 60 58 56 54 55 54 53 53 52 50 50 48 48 49 49 51 52 51 49 46 47
69 69 69 67 66 65 64 64 65 67 66 66 66 65 65 66 66 64 64 65 64 63 58 56 54 54 54 53 52 52 50 50 48 48 47 47 47 48 50 51 50 48 44
69 69 69 67 66 66 66 64 66 67 67 66 65 65 64 65 66 64 63 63 62 61 58 56 55 53 51 53 52 50 49 48 47 48 46 46 46 46 48 48 49 49 46
71 70 69 67 65 66 65 64 65 66 66 65 64 64 63 65 64 64 63 63 61 60 57 54 51 51 48 50 50 47 43 45 43 46 46 45 45 46 47 47 48 47 47
71 71 69 67 64 64 64 64 65 65 66 65 64 64 63 63 62 63 63 62 60 59 57 55 51 49 49 44 46 43 43 42 41 45 45 44 44 44 45 46 44 45 45
71 69 68 68 66 65 64 65 65 65 66 65 64 63 62 62 61 62 62 61 60 58 58 56 50 47 46 44 47 43 41 41 41 45 44 44 43 43 44 44 44 46 45
67 67 67 68 67 66 65 64 64 65 65 65 64 62 61 61 62 62 61 60 60 58 57 55 50 46 45 45 43 42 40 40 41 42 44 44 44 44 43 43 43 43 44
64 65 66 67 66 66 65 65 65 64 65 63 63 62 61 62 62 61 59 60 59 58 57 54 50 46 46 45 43 46 40 40 40 42 44 44 44 42 43 43 42 42 42
61 62 63 65 65 66 66 64 64 63 64 63 62 63 61 61 60 59 59 56 57 57 54 48 46 44 47 42 41 43 40 40 40 41 44 45 41 40 37 36 36 39 40
58 60 61 62 63 66 66 65 64 64 63 62 62 61 60 59 59 59 57 54 56 56 49 47 46 45 45 40 40 40 42 39 39 44 45 43 44 41 41 36 34 34 33
58 59 60 61 63 64 66 66 65 63 63 62 61 60 59 59 58 58 55 53 55 50 47 46 45 44 42 40 39 38 40 39 40 44 45 45 43 42 40 39 38 37 38
58 59 60 59 60 61 63 64 63 63 62 61 60 60 59 58 57 56 53 52 52 47 46 45 43 42 41 39 38 39 38 39 40 44 43 44 42 37 36 38 36 36 37
59 58 59 60 60 59 61 62 62 61 60 60 60 59 59 58 56 57 52 49 49 46 44 43 43 42 41 38 37 38 39 38 39 41 41 36 40 34 34 38 37 35 36
59 61 60 58 58 59 60 60 60 59 60 59 58 57 57 56 56 54 53 48 45 43 42 41 41 41 40 38 37 38 38 37 38 37 39 39 34 34 33 35 37 36 37
60 61 61 59 59 61 61 60 60 59 58 58 56 55 55 54 55 52 50 49 43 40 38 38 37 38 38 37 37 37 38 37 38 37 38 38 34 34 33 33 33 31 32
59 60 61 60 60 60 60 61 58 57 56 55 55 53 52 52 52 50 47 43 43 39 37 36 36 35 35 36 36 36 36 35 37 40 37 35 34 34 33 33 32 30 34
55 57 58 57 56 58 59 60 58 56 56 55 53 53 52 51 51 51 48 45 39 37 37 36 35 34 33 34 35 36 34 34 36 33 35 34 34 33 34 32 32 34 34
53 54 53 53 54 56 57 58 58 56 55 54 52 51 52 49 49 50 48 47 47 42 38 38 37 32 31 33 36 36 33 33 35 34 33 31 32 31 31 31 31 32 31
51 51 51 52 52 54 55 55 56 54 54 52 52 51 50 49 49 49 46 36 38 37 37 38 38 37 36 36 36 36 35 34 31 31 30 29 29 28 29 29 29 30 29
MSLP
1017.15 1017.90 1018.48 1019.11 1019.71 1020.39 1021.25 1021.93 1022.70 1023.36 1024.01 1024.58 1024.97 1025.44 1025.63 1026.16 1026.55 1026.74 1027.03 1027.31 1027.76 1028.25 1028.59 1028.87 1029.26 1029.47 1029.64 1030.17 1030.53 1030.79 1031.22 1031.85 1032.00 1031.70 1032.29 1032.72 1033.00 1033.07 1032.98 1032.91 1032.77 1032.80 1032.88
1016.93 1017.36 1017.90 1018.64 1019.10 1019.80 1020.64 1021.60 1022.27 1023.07 1023.66 1024.26 1024.75 1025.01 1025.39 1025.97 1026.21 1026.63 1027.00 1027.30 1027.66 1028.09 1028.41 1028.65 1029.06 1029.40 1029.69 1030.13 1030.42 1030.58 1031.08 1031.60 1032.20 1031.77 1031.80 1031.91 1032.74 1033.08 1033.30 1033.25 1033.09 1033.18 1032.99
1016.00 1016.68 1017.28 1017.89 1018.70 1019.30 1019.95 1020.71 1021.55 1022.42 1023.19 1023.81 1024.73 1025.39 1025.87 1026.17 1026.47 1026.74 1026.87 1027.20 1027.58 1027.88 1028.15 1028.51 1028.89 1029.44 1029.58 1029.89 1030.18 1030.46 1030.66 1030.98 1032.06 1032.15 1031.72 1031.75 1031.67 1032.57 1033.25 1033.49 1033.39 1033.35 1033.25
1015.09 1015.77 1016.56 1017.22 1017.95 1018.48 1019.37 1020.18 1020.97 1021.69 1022.63 1023.39 1023.96 1024.56 1024.77 1025.18 1025.48 1026.05 1026.34 1026.88 1027.33 1027.63 1027.99 1028.40 1028.91 1029.33 1029.66 1029.87 1030.16 1030.44 1030.60 1030.84 1031.21 1032.09 1032.30 1032.34 1032.23 1032.05 1032.55 1033.33 1033.56 1033.57 1033.55
1013.97 1014.65 1015.43 1016.12 1017.05 1018.08 1018.71 1019.48 1020.39 1021.16 1021.85 1022.57 1023.13 1023.72 1024.19 1024.67 1025.09 1025.76 1026.35 1026.72 1027.18 1027.57 1027.88 1028.29 1028.81 1029.19 1029.41 1029.85 1030.28 1030.74 1030.75 1030.85 1031.13 1031.43 1032.09 1032.43 1032.50 1032.61 1032.25 1032.10 1033.05 1033.44 1033.63
1012.95 1013.79 1014.78 1015.72 1016.53 1017.63 1018.29 1018.91 1019.65 1020.31 1021.07 1021.84 1022.60 1022.97 1023.34 1024.16 1024.56 1025.33 1025.96 1026.49 1026.95 1027.46 1027.89 1028.37 1028.91 1029.21 1029.42 1029.90 1030.33 1030.73 1030.91 1031.06 1031.41 1031.73 1031.89 1031.97 1032.02 1032.17 1032.33 1032.34 1032.66 1032.71 1033.26
1012.11 1012.98 1014.01 1014.95 1015.71 1016.68 1017.50 1018.19 1018.80 1019.30 1020.27 1020.96 1021.72 1022.31 1022.80 1023.48 1023.98 1024.65 1025.24 1025.97 1026.50 1026.93 1027.43 1028.10 1028.82 1029.25 1029.56 1030.23 1030.66 1030.81 1031.15 1031.39 1031.51 1031.89 1032.11 1032.34 1032.47 1032.52 1032.59 1032.56 1032.58 1032.54 1032.90
1011.25 1012.03 1012.89 1013.93 1014.82 1015.77 1016.67 1017.31 1017.79 1018.35 1019.29 1020.16 1020.75 1021.59 1022.18 1022.73 1023.40 1024.00 1024.49 1025.11 1025.47 1026.15 1027.06 1027.83 1028.47 1028.92 1029.24 1029.78 1030.64 1031.01 1031.19 1031.62 1031.87 1032.09 1032.37 1032.53 1032.72 1032.77 1032.84 1032.84 1032.78 1032.60 1032.72
1010.49 1011.26 1012.23 1013.30 1014.17 1015.04 1015.84 1016.40 1017.03 1017.63 1018.41 1019.06 1019.93 1020.71 1021.54 1022.02 1022.49 1023.31 1023.90 1024.28 1024.84 1025.71 1026.96 1027.69 1028.44 1029.11 1029.61 1029.76 1030.21 1030.83 1031.37 1031.69 1032.05 1032.23 1032.69 1032.67 1032.98 1033.10 1033.22 1033.34 1033.27 1032.84 1032.37
1010.00 1010.71 1011.61 1012.65 1013.58 1014.37 1015.12 1015.83 1016.30 1016.63 1017.38 1018.32 1019.03 1019.72 1020.50 1021.19 1021.90 1022.71 1023.16 1023.78 1024.45 1025.27 1026.29 1027.09 1027.75 1028.71 1029.28 1029.95 1030.00 1030.67 1031.32 1031.61 1032.11 1032.26 1032.59 1032.92 1033.03 1033.14 1033.29 1033.45 1033.45 1033.29 1032.98
1009.60 1010.45 1011.28 1012.18 1012.95 1013.68 1014.33 1014.88 1015.58 1016.20 1016.97 1017.77 1018.55 1019.23 1019.79 1020.46 1021.21 1021.72 1022.32 1022.99 1023.89 1024.67 1025.51 1026.22 1027.21 1027.94 1029.10 1029.37 1029.67 1030.30 1031.20 1031.39 1032.02 1032.23 1032.35 1032.94 1033.15 1033.00 1033.15 1033.48 1033.51 1033.51 1033.40
1009.56 1009.97 1010.67 1011.44 1012.21 1012.87 1013.64 1014.15 1014.75 1015.30 1016.02 1016.88 1017.94 1018.54 1019.37 1020.03 1020.54 1021.06 1021.72 1022.29 1023.14 1024.06 1024.73 1025.63 1026.71 1027.45 1028.05 1029.13 1029.43 1030.25 1030.71 1031.15 1031.72 1032.19 1032.44 1032.77 1033.26 1033.07 1033.22 1033.35 1033.54 1033.54 1033.71
1009.25 1009.79 1010.25 1010.77 1011.45 1012.15 1012.89 1013.51 1014.20 1014.77 1015.60 1016.37 1017.16 1017.85 1018.52 1019.17 1019.73 1020.49 1021.20 1021.83 1022.35 1023.17 1023.99 1024.72 1025.71 1026.80 1027.62 1028.46 1028.86 1029.57 1030.17 1030.83 1031.39 1031.63 1031.85 1032.29 1032.97 1032.96 1033.03 1033.20 1033.39 1033.55 1033.75
1009.55 1009.68 1009.95 1010.33 1011.01 1011.64 1012.25 1012.91 1013.55 1014.16 1014.84 1015.60 1016.19 1016.81 1017.49 1018.20 1019.01 1019.85 1020.58 1021.27 1021.71 1022.45 1023.31 1024.01 1024.94 1025.91 1026.70 1027.71 1028.56 1029.25 1029.85 1030.59 1031.16 1031.71 1031.81 1032.01 1032.62 1032.68 1032.95 1033.19 1033.41 1033.73 1033.77
1010.06 1010.07 1010.01 1010.16 1010.59 1011.08 1011.67 1012.32 1012.90 1013.49 1014.03 1014.71 1015.28 1015.80 1016.77 1017.64 1018.48 1019.19 1019.86 1020.46 1021.27 1021.78 1022.54 1023.50 1024.54 1025.63 1026.24 1026.88 1027.79 1028.40 1029.27 1030.12 1030.83 1031.47 1031.74 1032.05 1032.55 1032.90 1032.99 1033.11 1033.46 1033.79 1033.90
1010.61 1010.56 1010.30 1010.18 1010.24 1010.45 1010.83 1011.43 1011.96 1012.63 1013.26 1013.87 1014.40 1015.33 1016.17 1016.89 1017.55 1018.30 1019.06 1019.77 1020.49 1021.35 1022.29 1023.02 1023.83 1024.66 1025.37 1026.17 1027.05 1027.82 1028.94 1029.54 1030.32 1030.91 1031.29 1031.73 1032.71 1033.04 1033.51 1033.85 1034.09 1033.99 1034.09
1011.11 1010.87 1010.56 1010.29 1010.12 1010.07 1010.21 1010.45 1011.17 1011.97 1012.59 1013.16 1013.81 1014.55 1015.27 1015.92 1016.69 1017.48 1018.34 1019.07 1019.69 1020.68 1021.68 1022.52 1023.33 1024.09 1024.86 1025.84 1026.75 1027.61 1028.24 1029.11 1029.77 1030.14 1030.56 1031.42 1031.86 1032.55 1032.95 1033.89 1034.24 1034.46 1034.49
1011.32 1011.12 1010.87 1010.51 1010.15 1009.97 1009.92 1010.25 1010.88 1011.52 1012.12 1012.68 1013.17 1013.95 1014.61 1015.31 1016.19 1016.95 1017.74 1018.56 1019.30 1020.10 1020.94 1021.96 1022.89 1023.79 1024.61 1025.43 1026.33 1027.38 1028.02 1028.85 1029.35 1029.69 1029.90 1030.65 1031.34 1032.01 1032.60 1033.12 1033.45 1033.72 1033.88
1011.28 1011.22 1011.07 1010.78 1010.35 1009.99 1009.97 1010.25 1010.76 1011.31 1011.89 1012.43 1013.04 1013.63 1014.27 1014.83 1015.48 1016.39 1017.29 1017.95 1018.97 1019.86 1020.61 1021.46 1022.41 1023.26 1024.19 1025.00 1025.81 1026.87 1027.86 1028.41 1028.92 1029.31 1029.80 1030.23 1030.89 1032.01 1032.65 1032.84 1033.16 1033.39 1033.66
1011.41 1011.20 1010.95 1010.71 1010.41 1010.42 1010.44 1010.61 1011.01 1011.55 1012.05 1012.59 1013.18 1013.79 1014.47 1014.83 1015.35 1015.83 1016.78 1017.80 1018.69 1019.65 1020.53 1021.34 1022.20 1022.96 1023.89 1024.78 1025.64 1026.45 1027.29 1027.97 1028.48 1029.11 1029.72 1030.49 1030.64 1031.90 1032.49 1032.43 1032.73 1032.94 1033.24
1011.51 1011.31 1011.12 1011.02 1011.16 1011.15 1011.10 1011.17 1011.58 1011.95 1012.42 1012.86 1013.41 1013.90 1014.55 1015.04 1015.33 1016.11 1017.10 1017.99 1018.69 1019.45 1020.68 1021.47 1022.06 1022.62 1023.39 1024.40 1024.99 1025.78 1026.47 1027.25 1027.99 1028.67 1029.33 1030.02 1030.97 1031.55 1032.21 1032.41 1032.42 1032.73 1033.19
1011.59 1011.49 1011.34 1011.42 1011.58 1011.53 1011.41 1011.61 1011.92 1012.43 1012.72 1013.08 1013.52 1013.98 1014.42 1015.06 1015.25 1015.97 1016.87 1017.42 1018.77 1019.60 1020.29 1021.21 1022.24 1022.80 1023.19 1023.78 1024.85 1025.38 1025.89 1026.89 1027.46 1028.19 1028.91 1029.61 1030.78 1031.36 1031.93 1032.42 1032.70 1033.26 1033.50
1012.11 1012.05 1011.96 1011.89 1011.95 1011.95 1011.97 1011.96 1012.42 1012.67 1012.93 1013.23 1013.60 1014.04 1014.53 1014.87 1015.47 1015.92 1016.63 1017.62 1018.37 1019.49 1020.11 1020.64 1021.42 1022.38 1023.23 1023.73 1024.44 1025.35 1025.90 1026.57 1027.33 1027.74 1028.64 1029.49 1030.58 1031.20 1031.78 1032.12 1032.65 1033.15 1032.96
1012.76 1012.73 1012.66 1012.66 1012.68 1012.67 1012.53 1012.49 1012.58 1012.79 1012.99 1013.25 1013.61 1013.96 1014.32 1014.85 1015.38 1015.85 1016.58 1017.09 1017.86 1018.75 1019.56 1020.30 1021.05 1021.83 1022.69 1023.37 1023.98 1024.75 1025.66 1026.43 1026.92 1028.03 1028.71 1029.35 1030.07 1030.71 1031.05 1031.84 1032.29 1032.48 1032.59
1013.83 1013.77 1013.69 1013.67 1013.61 1013.43 1013.17 1012.98 1012.84 1012.96 1013.04 1013.27 1013.60 1013.91 1014.23 1014.64 1014.95 1015.44 1015.89 1016.14 1016.66 1017.06 1017.49 1018.37 1019.35 1020.34 1021.44 1021.47 1022.00 1023.00 1024.24 1025.35 1026.17 1027.33 1028.39 1029.30 1029.82 1030.42 1030.94 1031.34 1031.69 1032.11 1032.64
1014.47 1014.45 1014.47 1014.42 1014.33 1014.09 1013.86 1013.71 1013.57 1013.46 1013.43 1013.49 1013.67 1013.86 1014.13 1014.49 1014.79 1015.08 1015.63 1016.00 1016.30 1016.77 1017.41 1017.98 1018.07 1018.83 1019.33 1020.55 1021.66 1022.49 1023.17 1024.30 1025.71 1026.68 1027.84 1028.43 1029.10 1029.68 1030.18 1030.50 1031.10 1031.61 1032.17
Wind_Speed
11 13 15 16 16 16 16 17 16 15 11 9 9 6 7 6 6 6 10 10 9 9 8 7 7 6 6 7 8 9 10 6 5 6 6 6 6 6 5 5 4 5 5
12 15 16 16 18 18 18 17 17 15 13 9 7 4 6 5 6 6 8 9 10 10 8 8 7 7 8 8 7 7 5 3 1 1 2 4 4 4 5 4 4 6 3
16 16 18 18 16 18 19 18 18 17 15 13 7 4 5 4 5 6 7 8 10 10 9 9 8 7 6 6 6 6 5 4 2 0 3 2 2 3 2 5 4 5 4
16 16 17 17 18 18 17 18 18 18 15 15 13 13 11 10 7 8 7 8 11 11 10 9 8 8 6 7 6 5 4 4 4 3 3 2 1 3 4 3 3 3 4
17 18 20 18 17 16 17 17 18 18 17 17 16 12 14 10 7 8 10 10 10 10 10 10 9 8 6 7 7 6 5 3 3 3 3 2 3 1 3 3 4 3 3
17 17 15 15 15 14 15 17 19 19 18 17 17 16 16 12 11 11 10 9 8 8 9 9 7 7 7 8 7 7 7 6 5 3 3 3 2 3 2 3 3 3 4
15 15 17 17 16 18 18 17 20 21 20 19 18 17 15 17 15 15 12 12 9 8 11 11 9 7 7 8 7 7 7 6 6 5 4 3 3 3 1 2 1 3 3
11 14 17 17 17 18 19 19 21 21 21 20 19 16 18 12 12 14 12 11 11 10 12 11 10 10 11 10 8 6 6 7 6 7 5 4 4 2 1 1 2 3 4
11 13 14 15 16 17 19 20 20 20 20 21 17 18 16 16 15 15 14 12 11 9 12 12 11 10 9 10 10 6 7 7 6 7 6 5 4 4 3 2 2 2 3
8 10 12 13 14 16 17 18 19 21 20 19 17 15 18 17 15 15 16 15 12 13 14 13 13 12 11 10 10 8 8 8 5 5 7 5 5 5 4 3 2 1 3
5 4 6 10 13 15 16 17 18 19 18 17 16 17 16 17 16 15 15 15 15 15 16 15 14 14 10 11 11 9 8 9 7 7 7 6 6 4 4 3 2 2 1
5 6 6 10 12 14 15 17 17 18 18 17 16 16 16 16 16 16 16 16 16 16 16 15 14 11 13 11 11 11 9 9 8 9 8 7 5 6 5 3 4 3 2
7 4 7 9 10 12 13 14 15 16 15 16 16 16 16 17 17 16 16 16 17 16 16 16 14 14 13 12 13 11 10 10 9 10 10 9 7 6 5 5 3 2 1
7 6 5 6 7 9 11 12 13 14 15 16 17 17 17 17 16 16 16 17 16 17 17 17 15 14 14 13 12 10 10 9 8 8 9 10 9 8 7 5 4 2 1
6 7 6 5 5 8 9 10 11 13 15 16 17 17 16 16 16 16 15 16 16 16 17 16 14 12 13 11 14 15 11 10 9 9 9 9 10 8 6 5 5 4 2
6 8 8 6 5 7 9 11 12 13 15 16 16 15 15 16 17 17 16 14 16 15 15 14 15 15 11 18 19 16 11 11 10 10 10 9 11 10 10 6 3 1 3
6 8 9 9 7 6 8 11 12 13 14 14 14 15 16 17 17 16 16 15 17 16 14 13 14 15 12 23 21 18 10 11 9 12 11 9 7 10 10 9 8 5 3
4 6 8 9 9 8 6 6 10 12 13 13 14 15 16 16 15 16 16 13 14 15 13 13 13 12 11 23 22 18 10 9 10 12 11 11 11 11 10 8 6 4 4
5 5 6 7 8 6 3 7 9 10 11 11 12 13 14 15 16 15 15 13 13 12 12 12 13 14 13 23 22 19 10 9 10 10 11 11 11 14 13 8 6 5 4
5 7 8 6 8 8 2 5 6 7 8 8 9 9 11 12 13 13 13 11 11 10 9 11 11 14 14 21 22 16 8 10 8 10 10 11 12 16 14 8 7 6 5
8 7 8 9 8 6 4 4 4 5 4 6 7 8 9 10 10 11 10 10 10 10 9 10 10 12 15 17 23 22 11 9 9 8 9 8 14 17 14 8 6 4 5
11 11 10 9 8 7 5 5 4 3 4 6 7 8 8 7 9 12 10 13 11 11 11 11 8 8 11 18 20 21 14 13 10 9 8 9 18 16 15 10 8 9 5
9 9 9 10 9 8 7 6 4 3 5 5 6 7 8 8 9 12 12 9 11 9 9 10 10 9 8 9 19 19 16 17 8 8 10 15 17 15 11 10 11 8 5
11 10 10 11 10 10 9 6 3 3 4 5 6 6 7 9 9 8 8 9 9 9 9 9 9 9 9 9 10 10 11 14 9 11 11 11 11 8 6 9 9 6 5
8 9 10 9 11 10 10 10 7 3 4 5 5 6 6 10 9 9 9 11 13 12 13 13 12 14 12 14 18 17 12 10 10 11 10 9 8 8 8 7 7 6 6
6 6 7 8 9 9 9 11 11 5 6 6 5 6 6 7 7 8 8 2 6 11 8 6 13 11 3 20 24 24 23 23 23 10 10 10 9 8 9 9 8 7 8
Wind_Direction
186 185 188 185 184 180 177 184 180 184 174 177 171 171 174 170 169 175 171 163 161 158 149 143 143 136 128 114 117 115 119 109 118 119 107 92 82 69 60 52 52 57 59
184 188 189 187 189 182 183 184 190 183 185 184 179 175 168 174 170 172 173 170 166 163 161 155 147 146 137 138 135 146 142 118 158 115 157 174 157 99 61 52 61 54 64
192 191 193 193 189 188 187 188 188 186 187 188 159 122 120 135 159 171 173 177 175 171 167 157 146 144 146 147 149 165 171 149 110 60 298 188 233 165 126 75 69 69 77
201 195 195 194 195 194 190 188 189 184 186 184 189 185 190 187 189 184 179 174 179 174 166 156 152 149 143 144 145 156 153 163 151 132 80 57 50 224 185 166 104 106 101
195 199 199 198 197 189 189 189 187 187 184 187 194 189 197 194 177 176 171 178 180 177 170 163 159 153 149 142 135 142 144 136 154 156 156 143 122 146 260 211 173 176 140
201 205 200 193 192 189 184 183 187 192 187 189 191 193 190 179 176 175 178 182 179 175 176 164 161 154 145 144 138 131 129 122 119 135 154 178 186 160 198 224 204 249 175
195 195 189 189 188 188 186 187 192 194 191 192 192 194 189 187 185 178 183 177 181 183 179 170 163 160 144 138 143 136 131 133 131 137 122 121 111 125 131 244 182 257 180
201 202 198 194 189 189 189 192 195 197 192 194 194 192 190 190 195 190 183 190 191 187 174 173 169 162 158 149 142 137 132 132 134 132 131 127 117 133 160 258 242 219 238
203 207 201 196 188 189 193 195 197 201 196 197 193 193 192 194 196 190 189 191 187 176 172 170 163 160 161 157 149 145 142 142 144 137 143 139 133 129 133 186 235 288 277
207 206 203 194 188 193 194 197 200 203 198 194 193 192 192 194 192 188 189 191 184 176 171 170 165 166 162 172 159 151 153 149 152 150 151 150 142 134 135 142 159 270 300
247 227 202 189 190 192 194 198 200 203 202 197 193 194 193 193 192 193 191 189 181 178 176 167 168 172 172 171 164 158 155 153 164 163 157 157 158 145 144 158 152 130 322
253 242 207 187 187 193 195 199 201 203 200 197 193 197 191 195 193 196 193 185 186 183 179 175 175 171 171 166 167 161 163 164 166 174 170 165 177 159 153 153 139 114 70
296 252 225 212 201 197 196 199 201 204 200 197 194 194 195 196 198 198 194 188 187 184 184 181 174 172 172 170 170 167 164 163 173 181 179 170 190 175 161 154 154 127 62
293 301 256 239 218 203 199 198 199 199 195 195 199 196 196 198 197 195 193 194 190 185 187 186 175 176 168 169 167 164 157 165 176 182 185 174 196 186 173 174 176 178 268
342 336 322 283 227 209 201 199 198 194 193 195 201 202 197 197 195 193 191 194 193 192 189 180 176 169 171 171 168 173 164 168 168 181 188 186 201 190 178 182 183 197 257
340 331 327 321 282 235 208 198 196 193 191 196 202 197 193 194 194 191 192 188 193 191 183 177 174 172 180 171 166 162 163 165 173 182 187 188 195 184 174 160 116 62 278
323 325 323 315 306 279 226 208 192 183 191 194 194 190 192 194 195 192 189 188 193 185 182 175 174 180 175 162 159 159 164 167 175 194 179 189 192 175 173 153 147 145 150
344 323 317 313 310 301 256 209 182 184 189 193 189 189 189 191 190 190 192 187 188 182 176 177 174 170 167 164 161 160 162 166 186 196 184 191 179 179 176 179 182 187 189
344 326 323 318 320 320 262 181 176 182 188 192 195 191 191 187 185 191 193 185 182 175 177 171 169 170 165 168 161 161 163 175 181 186 180 189 180 165 172 180 186 192 187
20 359 359 16 28 18 97 159 166 175 191 194 196 189 196 190 192 195 186 173 174 171 164 165 174 171 165 165 162 162 167 172 171 179 181 183 179 163 168 186 187 203 189
42 32 44 46 37 40 90 110 140 174 168 167 174 180 192 195 190 181 178 169 161 150 158 162 167 167 166 169 168 172 172 169 172 172 182 178 165 166 172 185 188 189 167
40 35 45 45 42 42 46 60 73 98 146 160 169 182 182 189 181 177 176 167 160 157 158 157 160 170 166 169 176 177 172 165 173 176 177 168 171 172 172 175 157 162 190
41 32 37 43 39 31 29 24 47 129 147 161 172 178 178 175 178 176 167 166 168 171 171 171 171 172 170 169 176 176 162 166 163 172 166 157 171 172 177 179 176 180 199
37 28 36 32 26 13 9 352 355 171 183 192 185 179 184 185 185 184 182 174 173 173 176 178 180 171 168 173 173 176 164 163 155 148 155 160 164 177 173 165 180 195 195
46 35 33 27 17 10 13 6 337 277 246 235 209 202 201 195 192 203 201 200 204 194 181 189 179 169 181 195 180 174 167 164 162 148 150 161 172 177 182 183 185 184 179
39 32 26 14 3 360 7 13 7 314 276 257 233 221 211 208 212 209 202 94 202 195 211 196 187 194 149 167 176 170 167 160 149 150 165 176 182 184 188 184 183 186 192